#timestamp,LO_Frequency,Hit,StdDev 
1664748015.7,286046998.1,N
1664748035.6,286047000.2,N
1664748055.4,286047003.6,N
1664748075.2,286047001.8,N
1664748095.1,286047003.7,N
1664748096.0,286047003.7,N
1664748115.8,286047002.1,N
1664748135.6,286047001.6,N
1664748155.5,286047004.2,N
1664748175.3,286047002.1,N
1664748195.2,286047001.2,N
1664748215.9,286047000.1,N
1664748235.7,286047002.6,N
1664748255.6,286047004.1,N
1664748275.4,286047001.3,N
1664748295.2,286047003.1,N
1664748315.1,286046999.8,N
1664748316.0,286046999.8,N
1664748335.8,286046998.5,N
1664748355.7,286047000.0,N
1664748375.5,286046999.7,N
1664748395.3,286047004.3,N
1664748415.2,286047003.1,N
1664748435.0,286047003.5,N
1664748435.9,286047003.5,N
1664748455.7,286047001.3,N
1664748475.6,286047002.9,N
1664748495.4,286047006.0,Y
1664748515.3,286047000.2,P
1664748535.1,286047000.1,N
1664748536.0,286047000.1,N
1664748555.8,286047002.7,Y
1664748575.7,286047002.6,P
1664748595.5,286047002.4,N
1664748615.3,286047004.1,P
1664748635.2,286047003.6,N
1664748655.0,286047004.4,Y
1664748655.9,286047004.4,P
1664748675.8,286046996.9,P
1664748695.6,286046998.4,N
1664748715.5,286046998.9,N
1664748735.3,286046996.9,N
1664748755.1,286046995.3,N
1664748775.9,286046997.2,N
1664748795.7,286046997.0,N
1664748815.5,286046997.8,N
1664748835.4,286046996.8,N
1664748855.2,286047000.4,N
1664748875.0,286046999.0,N
1664748876.0,286046999.0,N
1664748895.8,286046996.6,N
1664748915.6,286046996.6,N
1664748935.5,286046998.5,N
1664748955.3,286047000.1,N
1664748975.1,286047000.0,N
1664748995.9,286046999.7,N
1664749015.7,286046998.4,N
1664749035.6,286047000.8,N
1664749055.4,286046999.9,N
1664749075.2,286046998.4,N
1664749095.1,286046998.4,N
1664749096.0,286046998.4,N
1664749115.8,286046999.6,N
1664749135.6,286047001.0,N
1664749155.5,286047000.9,N
1664749175.3,286047000.7,N
1664749195.2,286047000.0,N
1664749215.9,286046997.6,N
1664749235.7,286046995.6,N
1664749255.6,286046999.6,N
1664749275.4,286046997.3,N
1664749295.2,286046999.4,N
1664749315.1,286047000.2,N
1664749316.0,286047000.2,N
1664749335.8,286047000.7,N
1664749355.7,286046996.5,N
1664749375.5,286046995.5,Y
1664749395.3,286046999.4,P
1664749415.2,286046998.5,P
1664749435.0,286046999.0,N
1664749435.9,286046999.0,Y
1664749455.8,286047000.7,P
1664749475.6,286046999.7,N
1664749495.4,286047001.8,N
1664749515.3,286047002.8,N
1664749535.1,286047002.7,N
1664749555.8,286046999.7,N
1664749575.7,286047000.0,N
1664749595.5,286047001.8,N
1664749615.4,286047002.3,N
1664749635.2,286046999.7,N
1664749655.0,286047000.1,N
1664749655.9,286047000.1,N
1664749675.8,286046999.9,N
1664749695.6,286046999.8,N
1664749715.4,286046998.1,N
1664749735.3,286047002.7,N
1664749755.1,286047003.6,N
1664749775.9,286047004.0,N
1664749795.7,286046999.9,N
1664749815.5,286047002.8,N
1664749835.4,286047000.4,N
1664749855.2,286047000.3,N
1664749875.0,286047002.0,N
1664749875.9,286047002.0,N
1664749895.8,286046999.8,N
1664749915.6,286047001.2,N
1664749935.5,286047004.3,N
1664749955.3,286047003.7,N
1664749975.1,286047003.4,N
1664749995.9,286047001.5,N
1664750015.7,286047002.7,N
1664750035.5,286047002.3,N
1664750055.4,286047000.5,N
1664750075.2,286047000.6,N
1664750095.1,286047002.3,N
1664750096.0,286047002.3,N
1664750115.8,286047000.1,N
1664750135.6,286047001.7,N
1664750155.5,286046999.8,N
1664750175.3,286047001.7,N
1664750195.1,286047001.3,N
1664750215.9,286047004.2,N
1664750235.7,286047002.9,N
1664750255.6,286047006.0,Y
1664750275.4,286047002.6,P
1664750295.2,286047001.9,P
1664750315.1,286047001.7,P
1664750316.0,286047001.7,Y
1664750335.8,286046999.8,P
1664750355.7,286046998.2,N
1664750375.5,286047000.9,N
1664750395.3,286046996.9,N
1664750415.2,286046998.3,N
1664750435.0,286046998.5,N
1664750435.9,286046998.5,N
1664750455.7,286047000.5,N
1664750475.6,286047001.1,N
1664750495.4,286046999.0,N
1664750515.3,286046997.2,N
1664750535.1,286046999.3,N
1664750536.0,286046999.3,N
1664750555.8,286046998.3,N
1664750575.7,286046998.5,N
1664750595.5,286046994.9,Y
1664750615.4,286046998.3,P
1664750635.2,286047000.7,N
1664750655.0,286046999.9,N
1664750655.9,286046999.9,N
1664750675.8,286047002.1,N
1664750695.6,286047002.4,N
1664750715.4,286047000.3,N
1664750735.3,286047001.0,N
1664750755.1,286047000.1,N
1664750775.7,286046999.3,N
1664750795.5,286047001.2,N
1664750815.3,286046996.5,Y
1664750835.2,286046996.3,P
1664750855.0,286046995.4,N
1664750855.9,286046995.4,N
1664750875.7,286046996.6,N
1664750895.6,286047001.1,N
1664750915.4,286047000.4,N
1664750935.3,286047001.1,N
1664750955.9,286046998.2,N
1664750975.7,286046996.8,N
1664750995.6,286046998.3,N
1664751015.4,286047000.6,N
1664751035.2,286047000.1,N
1664751055.1,286047001.0,N
1664751056.0,286047001.0,N
1664751075.8,286047000.0,N
1664751095.7,286047000.6,N
1664751115.5,286047001.9,N
1664751135.3,286047001.9,N
1664751155.2,286047000.0,N
1664751175.9,286047000.0,N
1664751195.8,286046999.9,N
1664751215.6,286047001.8,N
1664751235.4,286047002.6,N
1664751255.3,286047000.5,N
1664751275.1,286047002.2,N
1664751295.9,286047001.4,N
1664751315.7,286047004.2,N
1664751335.5,286047006.0,N
1664751355.4,286047003.5,N
1664751375.2,286047001.5,N
1664751395.1,286046999.7,N
1664751396.0,286046999.7,N
1664751415.8,286047001.2,N
1664751435.6,286047000.8,N
1664751455.5,286047002.8,N
1664751475.3,286047000.4,N
1664751495.1,286047000.2,N
1664751515.9,286047000.0,N
1664751535.7,286046999.8,N
1664751555.6,286046999.8,N
1664751575.4,286047000.5,N
1664751595.2,286047002.5,N
